Погода в Сурах

Россия / Орловская область     52°58′59″N   37°20′06″E
темп.,
°C
ветер,
м/с
пор.,
м/с
влажн.,
%
обл.,
%
осадки,
мм/ч
давл.,
гПа
погр.,
м
11 мая, вт
вт1100:00+8ссв7177797 0.0 1022488
03:00+7ссв71683100 0.0 1022376
06:00+8ссв7178797 0.1 1021406
09:00+11св8168191 0.1 1021541
12:00+16всв8117141 0.0 10211013
15:00+12юв7886100 0.4 1022526
18:00+10в598461 0.0 1024639
21:00+8в411885 0.1 1025269
12 мая, ср
ср1200:00+7вюв410890 0.0 1026300
03:00+5в38922 0.0 1026161
06:00+6всв3891100 0.0 1025192
09:00+11всв5772100 0.0 1024637
12:00+12в5571100 0.1 10221089
15:00+11всв5576100 0.6 1021743
18:00+12в457214 0.0 1019809
21:00+8в512909 0.0 1019305
13 мая, чт
чт1300:00+10в71685100 0.0 1017519
03:00+9вюв6139195 0.3 1018418
06:00+9вюв4894100 0.1 1018343
09:00+13юв5984100 0.3 1017694
12:00+16ю367199 0.3 1016847
15:00+17ю6870100 1.6 10151231
18:00+15ююз5882100 3.3 1015609
21:00+12ю229149 3.4 101614
14 мая, пт
пт1400:00+11вюв2291100 0.0 101620
03:00+12вюв3794100 0.6 1016143
06:00+13вюв4109491 0.3 1015253
09:00+17юв61083100 0.9 1014554
12:00+21юв71070100 0.0 10131106
15:00+22ююв71272100 1.8 10121411
18:00+21ююв51178100 1.2 1011487
21:00+17юв498998 2.4 1011184
15 мая, сб
сб1500:00+16ююв101789100 0.1 1012473
03:00+14ююв41186100 0.4 1010235
06:00+15ююв61592100 0.9 1010430
09:00+18юв597792 2.9 1009514
12:00+20ю797899 0.1 10091041
15:00+21ююз686487 1.3 10091324
18:00+19ююз697583 0.7 1009824
21:00+15юз4992100 1.6 1009212